sat.trackr.live / text

‹ back to catalog

STARLINK-31329

NORAD 59169 · 2024-044T

PAYLOAD ACTIVE UNKNOWN

§ Identity

Operator
Country
US
Launch date
2024-03-04
Launch site
AFETR
Launch vehicle
Mass (kg)
RCS (m²)

Purposes: comms

External: N2YO · Heavens-Above · Gunter

§ Orbital elements

Epoch: 2026-05-25T01:33:42.174144Z

Period
94.27 min
Inclination
43.0014°
Eccentricity
0.0000962
Mean motion
15.27577682 rev/d
Perigee alt
482.4 km
Apogee alt
483.7 km
Semi-major
6,861.2 km
B*
-2.5907e-7
RAAN
35.9196°
Arg perigee
261.0594°
Mean anomaly
99.0148°
Rev number
12,524

§ Raw data

STARLINK-313291 59169U 24044T   26145.06507146 -.00000269  00000+0 -25907-6 0  99982 59169  43.0014  35.9196 0000962 261.0594  99.0148 15.27577682125246

JSON: /api/v1/satellites/59169 · /tle

For live sub-satellite position, see the globe view (requires WebGL).

§ Visibility from observer

Set your observer location to see the next 7 days of passes ≥ 10°. The values pass through the URL so the page stays shareable.

No JS? Fill the form by hand. The geolocation button needs JavaScript.